• Join FlightAware (Why Join?)
  • Login
  • US Flag 
10:07AM EDT


 

Airport Tracker/Info


-or-


 

Live Flight TrackerFlight Track Log ✈ UAL4663 ✈ 22-Apr-2013 ✈ KRDU - KEWR

Flight Track Log - Related Links

Times and Time Zones

All times are in EDT time to prevent confusion due to time zone crossing. See the UAL4663 flight status page for this flight to view local times or setup timezone preferences in your user account.

Time Position Orientation Groundspeed Altitude Reporting Facility
EDT Latitude Longitude Course Direction KTS MPH feet Rate Location/Type
09:43PM 35.9028 -78.7794 15° North 173 199 1,400  Level Washington Center
09:44PM 35.9347 -78.7575 29° Northeast 170 196 3,200 1,980 Climbing Washington Center
09:45PM 35.9897 -78.7367 17° North 245 282 4,900 2,100 Climbing Washington Center
09:46PM 36.1519 -78.6754 19° North  Level FlightAware Approximate
09:46PM 36.0992 -78.7000 15° North 293 337 8,400  Level Washington Center
09:47PM 36.2467 -78.6348 19° North  Level FlightAware Approximate
09:47PM 36.1706 -78.6744 16° North 286 329 10,600  Level Washington Center
09:48PM 36.3434 -78.6022 15° North  Level FlightAware Approximate
09:48PM 36.2633 -78.6447 14° North 314 361 11,500  Level Washington Center
09:49PM 36.3558 -78.6094 17° North 333 383 13,200 1,740 Climbing Washington Center
09:50PM 36.4428 -78.5536 27° Northeast 351 404 15,000 1,500 Climbing Washington Center
09:51PM 36.5339 -78.4950 27° Northeast 361 415 16,200 1,200 Climbing Washington Center
09:52PM 36.6250 -78.4389 26° Northeast 366 421 17,500 960 Climbing Washington Center
09:53PM 36.7183 -78.3747 29° Northeast 371 427 18,200 900 Climbing Washington Center
09:54PM 36.8053 -78.3131 30° Northeast 387 445 19,400 1,140 Climbing Washington Center
09:55PM 36.9047 -78.2492 27° Northeast 392 451 20,500 1,080 Climbing Washington Center
09:56PM 37.0044 -78.1822 28° Northeast 397 457 21,600 1,080 Climbing Washington Center
09:57PM 37.1058 -78.1128 29° Northeast 403 464 22,700 1,080 Climbing Washington Center
09:58PM 37.2097 -78.0431 28° Northeast 410 472 23,800 1,080 Climbing Washington Center
09:59PM 37.3208 -78.0050 15° North 416 479 24,900 1,020 Climbing Washington Center
10:00PM 37.4261 -78.0631 60° Northeast 391 450 25,900 1,020 Climbing Washington Center
10:01PM 37.3879 -77.8556 60° Northeast  Level FlightAware Approximate
10:02PM 37.6086 -77.9067 34° Northeast 379 436 28,100  Level Washington Center
10:03PM 37.6797 -77.7828 54° Northeast 405 466 29,000 420 Climbing Washington Center
10:04PM 37.7572 -77.6536 53° Northeast 430 495 29,000  Level Washington Center
10:05PM 37.8553 -77.5328 44° Northeast 459 528 29,000  Level Washington Center
10:06PM 37.9631 -77.4328 36° Northeast 474 545 29,000  Level Washington Center
10:07PM 38.0731 -77.3353 35° Northeast 481 554 29,000  Level Washington Center
10:08PM 38.1869 -77.2297 36° Northeast 496 571 29,000  Level Washington Center
10:09PM 38.3158 -77.1108 36° Northeast 510 587 29,000  Level Washington Center
10:10PM 38.4192 -77.0119 37° Northeast 510 587 29,000  Level Washington Center
10:11PM 38.5350 -76.9056 36° Northeast 510 587 29,000  Level Washington Center
10:12PM 38.6508 -76.7933 37° Northeast 510 587 29,000  Level Washington Center
10:13PM 38.7647 -76.6778 38° Northeast 510 587 29,000 -240 Level Washington Center
10:14PM 38.8719 -76.5542 42° Northeast 510 587 28,600 -1,020 Descending Washington Center
10:15PM 38.9750 -76.4328 42° Northeast 510 587 27,000 -840 Descending Washington Center
10:16PM 39.0736 -76.3214 41° Northeast 488 562 27,000  Level Washington Center
10:17PM 39.1722 -76.2047 43° Northeast 477 549 27,000  Level Washington Center
10:18PM 39.2750 -76.0903 41° Northeast 477 549 27,000 -480 Level Washington Center
10:19PM 39.3714 -75.9756 43° Northeast 477 549 26,100 -1,800 Descending Washington Center
10:20PM 39.4633 -75.8658 43° Northeast 458 527 23,400 -2,220 Descending Washington Center
10:21PM 39.5467 -75.7664 43° Northeast 431 496 21,700 -1,860 Descending Washington Center
10:22PM 39.6281 -75.6697 42° Northeast 408 470 19,700 -1,800 Descending Washington Center
10:23PM 39.7053 -75.5753 43° Northeast 387 445 18,200 -1,440 Descending Washington Center
10:24PM 39.7822 -75.4836 42° Northeast 375 432 16,900 -660 Descending Washington Center
10:25PM 39.8592 -75.3914 43° Northeast 369 425 16,900 -720 Level Washington Center
10:26PM 39.9422 -75.2939 42° Northeast 369 425 15,500 -1,500 Descending Washington Center
10:27PM 40.0150 -75.2042 43° Northeast 369 425 13,900 -1,620 Descending Washington Center
10:28PM 40.0856 -75.1142 44° Northeast 364 419 12,300 -1,500 Descending Washington Center
10:29PM 40.1539 -75.0269 44° Northeast 352 405 11,000 -1,140 Descending Washington Center
10:30PM 40.2283 -74.9422 41° Northeast 346 398 10,100 -600 Descending Washington Center
10:31PM 40.2781 -74.8628 51° Northeast 317 365 9,900 -120 Descending Washington Center
10:32PM 40.2256 -74.8200 148° Southeast 147 169 9,900  Level Washington Center
10:33PM 40.1758 -74.8800 223° Southwest 128 147 9,900  Level Washington Center
10:34PM 40.1536 -74.9564 249° West 174 200 9,900  Level Washington Center
10:35PM 40.2119 -74.9639 354° North 109 125 9,900  Level Washington Center
10:36PM 40.2614 -74.9011 44° Northeast 164 189 9,900 -180 Level Washington Center
10:37PM 40.2486 -74.8278 103° East 146 168 9,600 -540 Descending Washington Center
10:38PM 40.1925 -74.8719 211° Southwest 113 130 8,900 -840 Descending Washington Center
10:39PM 40.1514 -74.9372 231° Southwest 165 190 8,000 -540 Descending Washington Center
10:40PM 40.1953 -74.9803 323° Northwest 152 175 7,900  Descending Washington Center
10:41PM 40.2333 -74.9333 43° Northeast 259 298 8,000 120 Climbing New York TRACON
10:42PM 40.2833 -74.8667 45° Northeast 275 316 8,100 -420 Climbing New York TRACON
10:43PM 40.3333 -74.8000 45° Northeast 241 277 7,300 -1,020 Descending New York TRACON
10:44PM 40.3667 -74.7333 57° Northeast 228 262 6,100 -660 Descending New York TRACON
10:45PM 40.4333 -74.7000 21° North 213 245 6,000 -420 Descending New York TRACON
10:46PM 40.4833 -74.6667 27° Northeast 208 239 5,300 -540 Descending New York TRACON
10:47PM 40.5000 -74.6333 57° Northeast 202 232 5,000 -540 Descending New York TRACON
10:48PM 40.4667 -74.5833 131° Southeast 180 207 4,300 -900 Descending New York TRACON
10:49PM 40.4333 -74.5333 131° Southeast 172 198 3,300 -660 Descending New York TRACON
10:50PM 40.4333 -74.4667 90° East 171 197 3,000 -180 Descending New York TRACON
10:51PM 40.4500 -74.4167 66° East 171 197 3,000  Level New York TRACON
10:52PM 40.4833 -74.3500 57° Northeast 171 197 3,000  Level New York TRACON
10:53PM 40.5000 -74.3000 66° East 174 200 3,000  Level New York TRACON